Location: Bee Sting Hill Observatory
(34.8650°N, 84.3356°W)
Time: 06:06:50
(UTC-04:00)

ISS - Visible Passes

Search period start: 26 May 2018 00:00
Search period end: 05 June 2018 00:00
Orbit: 402 x 407 km, 51.6° (Epoch: 26 May)

Date Brightness Start Highest point End Pass type
(mag) Time Alt. Az. Time Alt. Az. Time Alt. Az.
26 May -0.6 21:18:42 10° WNW 21:20:24 13° NNW 21:22:05 10° N visible
31 May -0.4 00:19:13 10° N 00:19:36 12° N 00:19:36 12° N visible
02 Jun -0.6 00:10:27 10° NNW 00:11:08 14° NNW 00:11:08 14° NNW visible
02 Jun -1.4 23:18:37 10° NNW 23:20:37 18° NNE 23:20:37 18° NNE visible
03 Jun -1.0 22:27:11 10° N 22:28:25 12° NNE 22:29:38 10° NE visible
04 Jun -0.8 00:02:04 10° NW 00:02:45 15° NW 00:02:45 15° NW visible
04 Jun -2.3 23:09:54 10° NNW 23:12:17 33° N 23:12:17 33° N visible
